Location: Newark
(50.4348°N, 30.5552°E)
Time: 06:39:25
(UTC+00:00)

Altair - Pass Details

Date: 25 January 2020
Orbit: 1502 x 1682 km, 47.2° (Epoch: 17 February)

Event Time Altitude Azimuth Distance (km) Brightness Sun altitude
Rises 05:48:38 0° 209° (SSW) 4,862 10.2 0.0°
Reaches altitude 10° 05:52:04 10° 201° (SSW) 3,897 9.8 0.4°
Maximum altitude 06:00:48 36° 140° (SE) 2,452 9.6 1.6°
Drops below altitude 10° 06:09:38 10° 79° (E) 3,948 10.4 2.8°
Sets 06:13:08 0° 72° (ENE) 4,932 10.7 3.2°
